| time (UTC) | temp F | wind direction | speed MPH | gust MPH | rain 1hr in | rain 24hr in | rain mn in | humidity % | barometer mb |
| 20260503202147 | 75 | 36 | 5.0 | 8.0 | 0.00 | 0.00 | 0.00 | 31 | 1019.6 |
| 20260503201646 | 75 | 41 | 7.0 | 9.0 | 0.00 | 0.00 | 0.00 | 33 | 1019.6 |
| 20260503201146 | 74 | 19 | 3.0 | 7.0 | 0.00 | 0.00 | 0.00 | 33 | 1020.0 |
| 20260503200646 | 74 | 45 | 2.0 | 8.0 | 0.00 | 0.00 | 0.00 | 35 | 1020.0 |
| 20260503200147 | 75 | 20 | 5.0 | 6.0 | 0.00 | 0.00 | 0.00 | 33 | 1020.0 |
| 20260503195646 | 75 | 4 | 5.0 | 9.0 | 0.00 | 0.00 | 0.00 | 33 | 1020.0 |
| 20260503195146 | 74 | 346 | 8.0 | 11.0 | 0.00 | 0.00 | 0.00 | 34 | 1020.0 |
| 20260503194646 | 75 | 294 | 3.0 | 11.0 | 0.00 | 0.00 | 0.00 | 33 | 1020.0 |
| 20260503194147 | 74 | 322 | 5.0 | 11.0 | 0.00 | 0.00 | 0.00 | 34 | 1020.3 |
| 20260503193646 | 75 | 315 | 7.0 | 10.0 | 0.00 | 0.00 | 0.00 | 33 | 1020.3 |
| 20260503193146 | 75 | 45 | 4.0 | 9.0 | 0.00 | 0.00 | 0.00 | 32 | 1020.3 |
| 20260503192646 | 75 | 18 | 4.0 | 10.0 | 0.00 | 0.00 | 0.00 | 33 | 1020.3 |
| 20260503192146 | 74 | 315 | 6.0 | 10.0 | 0.00 | 0.00 | 0.00 | 33 | 1020.7 |
| 20260503191647 | 75 | 18 | 1.0 | 8.0 | 0.00 | 0.00 | 0.00 | 32 | 1020.7 |
| 20260503191146 | 75 | 10 | 6.0 | 10.0 | 0.00 | 0.00 | 0.00 | 33 | 1020.7 |
| 20260503190647 | 75 | 335 | 5.0 | 9.0 | 0.00 | 0.00 | 0.00 | 33 | 1020.7 |
| 20260503190147 | 75 | 32 | 6.0 | 11.0 | 0.00 | 0.00 | 0.00 | 34 | 1020.7 |
| 20260503185647 | 75 | 321 | 8.0 | 9.0 | 0.00 | 0.00 | 0.00 | 34 | 1020.7 |
| 20260503185146 | 74 | 313 | 6.0 | 10.0 | 0.00 | 0.00 | 0.00 | 34 | 1020.7 |
| 20260503184646 | 74 | 1 | 4.0 | 9.0 | 0.00 | 0.00 | 0.00 | 35 | 1021.0 |
| 20260503184147 | 75 | 321 | 5.0 | 12.0 | 0.00 | 0.00 | 0.00 | 36 | 1021.0 |
| 20260503183646 | 75 | 35 | 5.0 | 8.0 | 0.00 | 0.00 | 0.00 | 34 | 1021.0 |
| 20260503183147 | 74 | 15 | 5.0 | 6.0 | 0.00 | 0.00 | 0.00 | 33 | 1021.0 |
| 20260503182646 | 74 | 300 | 8.0 | 9.0 | 0.00 | 0.00 | 0.00 | 32 | 1021.3 |
| 20260503182146 | 74 | 41 | 1.0 | 6.0 | 0.00 | 0.00 | 0.00 | 33 | 1021.0 |
| 20260503181646 | 74 | 337 | 4.0 | 9.0 | 0.00 | 0.00 | 0.00 | 32 | 1021.3 |
| 20260503181148 | 74 | 349 | 5.0 | 8.0 | 0.00 | 0.00 | 0.00 | 32 | 1021.3 |
| 20260503180652 | 74 | 115 | 2.0 | 4.0 | 0.00 | 0.00 | 0.00 | 32 | 1021.3 |
| 20260503180146 | 74 | 59 | 6.0 | 13.0 | 0.00 | 0.00 | 0.00 | 32 | 1021.3 |
| 20260503175646 | 74 | 330 | 3.0 | 6.0 | 0.00 | 0.00 | 0.00 | 31 | 1021.3 |
| 20260503175146 | 74 | 12 | 4.0 | 5.0 | 0.00 | 0.00 | 0.00 | 32 | 1021.3 |
| 20260503174646 | 73 | 356 | 3.0 | 6.0 | 0.00 | 0.00 | 0.00 | 33 | 1021.7 |
| 20260503174147 | 74 | 49 | 7.0 | 14.0 | 0.00 | 0.00 | 0.00 | 32 | 1021.7 |
| 20260503173646 | 73 | 100 | 3.0 | 5.0 | 0.00 | 0.00 | 0.00 | 32 | 1021.7 |
| 20260503173148 | 73 | 66 | 4.0 | 10.0 | 0.00 | 0.00 | 0.00 | 32 | 1021.7 |
| 20260503172647 | 73 | 5 | 4.0 | 11.0 | 0.00 | 0.00 | 0.00 | 31 | 1022.0 |
| 20260503172147 | 73 | 48 | 7.0 | 13.0 | 0.00 | 0.00 | 0.00 | 32 | 1022.0 |
| 20260503171647 | 73 | 67 | 3.0 | 7.0 | 0.00 | 0.00 | 0.00 | 32 | 1022.4 |
| 20260503171146 | 73 | 67 | 6.0 | 11.0 | 0.00 | 0.00 | 0.00 | 31 | 1022.7 |
| 20260503170646 | 73 | 52 | 4.0 | 12.0 | 0.00 | 0.00 | 0.00 | 32 | 1022.4 |
| 20260503170146 | 73 | 354 | 5.0 | 6.0 | 0.00 | 0.00 | 0.00 | 30 | 1022.4 |
| 20260503150647 | 73 | 44 | 6.0 | 13.0 | 0.00 | 0.00 | 0.00 | 33 | 1022.4 |
| 20260503150146 | 73 | 57 | 2.0 | 8.0 | 0.00 | 0.00 | 0.00 | 34 | 1022.4 |
| 20260503140147 | 71 | 64 | 4.0 | 8.0 | 0.00 | 0.00 | 0.00 | 47 | 1021.7 |
| 20260503131146 | 68 | 15 | 2.0 | 4.0 | 0.00 | 0.00 | 0.00 | 60 | 1021.3 |
| 20260503130647 | 67 | 38 | 0.0 | 3.0 | 0.00 | 0.00 | 0.00 | 61 | 1021.3 |
| 20260503130148 | 65 | 34 | 3.0 | 3.0 | 0.00 | 0.00 | 0.00 | 64 | 1021.3 |
| 20260503120147 | 57 | 15 | 0.0 | 1.0 | 0.00 | 0.00 | 0.00 | 77 | 1020.7 |
| 20260503110646 | 56 | 44 | 0.0 | 0.0 | 0.00 | 0.00 | 0.00 | 77 | 1020.3 |
| 20260503110146 | 56 | 44 | 0.0 | 0.0 | 0.00 | 0.00 | 0.00 | 77 | 1020.3 |
| 20260503100147 | 57 | 315 | 0.0 | 0.0 | 0.00 | 0.00 | 0.00 | 73 | 1020.3 |
| 20260503090153 | 66 | 13 | 5.0 | 6.0 | 0.00 | 0.00 | 0.00 | 51 | 1020.0 |
| 20260503081147 | 66 | 13 | 5.0 | 6.0 | 0.00 | 0.00 | 0.00 | 51 | 1019.6 |
| 20260503080646 | 66 | 13 | 5.0 | 6.0 | 0.00 | 0.00 | 0.00 | 51 | 1019.6 |
| 20260503080146 | 66 | 13 | 5.0 | 6.0 | 0.00 | 0.00 | 0.00 | 51 | 1019.6 |
| 20260503072646 | 66 | 13 | 5.0 | 6.0 | 0.00 | 0.00 | 0.00 | 51 | 1019.3 |
| 20260503072146 | 66 | 13 | 5.0 | 6.0 | 0.00 | 0.00 | 0.00 | 51 | 1019.3 |
| 20260503071648 | 66 | 9 | 4.0 | 5.0 | 0.00 | 0.00 | 0.00 | 49 | 1019.3 |
| 20260503071146 | 66 | 9 | 4.0 | 5.0 | 0.00 | 0.00 | 0.00 | 49 | 1019.0 |
| 20260503070646 | 66 | 9 | 4.0 | 5.0 | 0.00 | 0.00 | 0.00 | 49 | 1019.3 |
| 20260503070146 | 66 | 9 | 4.0 | 5.0 | 0.00 | 0.00 | 0.00 | 49 | 1019.3 |
| 20260503060146 | 67 | 353 | 5.0 | 9.0 | 0.00 | 0.00 | 0.00 | 47 | 1019.0 |
| 20260503054648 | 67 | 10 | 10.0 | 11.0 | 0.00 | 0.00 | 0.00 | 47 | 1019.0 |
| 20260503054146 | 67 | 31 | 7.0 | 8.0 | 0.00 | 0.00 | 0.00 | 48 | 1019.0 |
| 20260503053646 | 67 | 42 | 5.0 | 7.0 | 0.00 | 0.00 | 0.00 | 47 | 1019.0 |
| 20260503053147 | 67 | 34 | 4.0 | 6.0 | 0.00 | 0.00 | 0.00 | 47 | 1019.0 |
| 20260503052647 | 67 | 13 | 6.0 | 11.0 | 0.00 | 0.00 | 0.00 | 46 | 1019.0 |
| 20260503052147 | 67 | 6 | 4.0 | 8.0 | 0.00 | 0.00 | 0.00 | 47 | 1018.6 |
| 20260503051647 | 67 | 10 | 3.0 | 10.0 | 0.00 | 0.00 | 0.00 | 47 | 1019.0 |
| 20260503051146 | 68 | 12 | 4.0 | 8.0 | 0.00 | 0.00 | 0.00 | 46 | 1018.6 |
| 20260503050647 | 68 | 32 | 10.0 | 10.0 | 0.00 | 0.00 | 0.00 | 46 | 1019.0 |
| 20260503050154 | 68 | 0 | 3.0 | 12.0 | 0.00 | 0.00 | 0.00 | 47 | 1019.0 |
| 20260503045647 | 68 | 56 | 5.0 | 9.0 | 0.00 | 0.00 | 0.68 | 47 | 1019.0 |
| 20260503045146 | 68 | 338 | 6.0 | 9.0 | 0.00 | 0.00 | 0.68 | 47 | 1019.0 |
| 20260503044647 | 68 | 37 | 7.0 | 9.0 | 0.00 | 0.00 | 0.68 | 47 | 1019.0 |
| 20260503044146 | 68 | 26 | 5.0 | 8.0 | 0.00 | 0.00 | 0.68 | 47 | 1019.0 |
| 20260503043646 | 68 | 349 | 3.0 | 10.0 | 0.00 | 0.00 | 0.68 | 47 | 1019.0 |
| 20260503043147 | 68 | 331 | 3.0 | 9.0 | 0.00 | 0.00 | 0.68 | 45 | 1019.0 |
| 20260503042646 | 68 | 25 | 5.0 | 10.0 | 0.00 | 0.00 | 0.68 | 45 | 1019.0 |
| 20260503042147 | 68 | 41 | 5.0 | 11.0 | 0.00 | 0.00 | 0.68 | 45 | 1018.6 |
| 20260503041646 | 68 | 3 | 3.0 | 11.0 | 0.00 | 0.00 | 0.68 | 45 | 1018.6 |
| 20260503041146 | 68 | 30 | 5.0 | 6.0 | 0.00 | 0.00 | 0.68 | 45 | 1018.6 |
| 20260503040646 | 68 | 1 | 5.0 | 9.0 | 0.00 | 0.00 | 0.68 | 43 | 1018.6 |
| 20260503040146 | 68 | 26 | 9.0 | 13.0 | 0.00 | 0.00 | 0.68 | 43 | 1018.6 |
| 20260503035647 | 68 | 6 | 5.0 | 9.0 | 0.00 | 0.00 | 0.68 | 45 | 1018.3 |
| 20260503035146 | 68 | 2 | 6.0 | 11.0 | 0.00 | 0.00 | 0.68 | 45 | 1018.6 |
| 20260503034646 | 68 | 26 | 2.0 | 7.0 | 0.00 | 0.00 | 0.68 | 45 | 1018.3 |
| 20260503034148 | 69 | 27 | 5.0 | 9.0 | 0.00 | 0.00 | 0.68 | 44 | 1018.6 |
| 20260503033647 | 69 | 285 | 4.0 | 8.0 | 0.00 | 0.00 | 0.68 | 44 | 1018.6 |
| 20260503033146 | 69 | 6 | 8.0 | 12.0 | 0.00 | 0.00 | 0.68 | 44 | 1018.3 |
| 20260503032646 | 69 | 31 | 7.0 | 9.0 | 0.00 | 0.00 | 0.68 | 44 | 1018.3 |
| 20260503032146 | 69 | 10 | 11.0 | 13.0 | 0.00 | 0.00 | 0.68 | 43 | 1017.9 |
| 20260503031647 | 69 | 12 | 4.0 | 7.0 | 0.00 | 0.00 | 0.68 | 44 | 1018.3 |
| 20260503031146 | 69 | 6 | 7.0 | 11.0 | 0.00 | 0.00 | 0.68 | 43 | 1018.3 |
| 20260503030646 | 69 | 3 | 9.0 | 13.0 | 0.00 | 0.00 | 0.68 | 43 | 1018.3 |
| 20260503030147 | 69 | 352 | 4.0 | 12.0 | 0.00 | 0.00 | 0.68 | 43 | 1018.3 |
| 20260503025646 | 69 | 14 | 9.0 | 9.0 | 0.00 | 0.00 | 0.68 | 42 | 1017.9 |
| 20260503025147 | 69 | 11 | 5.0 | 9.0 | 0.00 | 0.00 | 0.68 | 41 | 1017.9 |
| 20260503024646 | 69 | 41 | 3.0 | 9.0 | 0.00 | 0.00 | 0.68 | 42 | 1017.9 |
| 20260503024146 | 69 | 303 | 3.0 | 11.0 | 0.00 | 0.00 | 0.68 | 42 | 1017.9 |
| 20260503023646 | 69 | 17 | 4.0 | 11.0 | 0.00 | 0.00 | 0.68 | 41 | 1017.9 |
| 20260503023146 | 69 | 4 | 6.0 | 10.0 | 0.00 | 0.00 | 0.68 | 42 | 1017.9 |
| 20260503022647 | 69 | 336 | 3.0 | 9.0 | 0.00 | 0.00 | 0.68 | 42 | 1017.6 |
| 20260503022147 | 69 | 329 | 6.0 | 10.0 | 0.00 | 0.00 | 0.68 | 41 | 1017.6 |
| 20260503021646 | 69 | 27 | 8.0 | 11.0 | 0.00 | 0.00 | 0.68 | 41 | 1017.6 |
| 20260503021148 | 69 | 11 | 9.0 | 13.0 | 0.00 | 0.00 | 0.68 | 41 | 1017.9 |
| 20260503020647 | 69 | 14 | 6.0 | 10.0 | 0.00 | 0.00 | 0.68 | 41 | 1017.6 |
| 20260503020146 | 69 | 25 | 7.0 | 11.0 | 0.00 | 0.00 | 0.68 | 42 | 1017.6 |
| 20260503015647 | 69 | 356 | 7.0 | 10.0 | 0.00 | 0.00 | 0.68 | 42 | 1017.3 |
| 20260503015147 | 69 | 1 | 6.0 | 11.0 | 0.00 | 0.00 | 0.68 | 41 | 1017.3 |
| 20260503014647 | 69 | 338 | 7.0 | 10.0 | 0.00 | 0.00 | 0.68 | 41 | 1017.3 |
| 20260503014146 | 70 | 47 | 7.0 | 9.0 | 0.00 | 0.00 | 0.68 | 40 | 1017.3 |
| 20260503013646 | 69 | 317 | 4.0 | 7.0 | 0.00 | 0.00 | 0.68 | 42 | 1017.3 |
| 20260503013147 | 70 | 337 | 5.0 | 9.0 | 0.00 | 0.00 | 0.68 | 42 | 1017.3 |
| 20260503012646 | 70 | 341 | 3.0 | 8.0 | 0.00 | 0.00 | 0.68 | 42 | 1017.3 |
| 20260503012147 | 70 | 1 | 4.0 | 7.0 | 0.00 | 0.00 | 0.68 | 42 | 1017.3 |
| 20260503011646 | 70 | 317 | 3.0 | 9.0 | 0.00 | 0.00 | 0.68 | 42 | 1017.3 |
| 20260503011146 | 70 | 0 | 1.0 | 7.0 | 0.00 | 0.00 | 0.68 | 42 | 1016.9 |
| 20260503010647 | 70 | 353 | 6.0 | 10.0 | 0.00 | 0.00 | 0.68 | 41 | 1016.9 |
| 20260503010146 | 70 | 326 | 7.0 | 7.0 | 0.00 | 0.00 | 0.68 | 40 | 1016.9 |
| 20260503005646 | 70 | 5 | 5.0 | 11.0 | 0.00 | 0.00 | 0.68 | 40 | 1016.6 |
| 20260503005146 | 70 | 11 | 6.0 | 7.0 | 0.00 | 0.00 | 0.68 | 40 | 1016.6 |
| 20260503004646 | 70 | 4 | 4.0 | 11.0 | 0.00 | 0.00 | 0.68 | 40 | 1016.6 |
| 20260503004146 | 70 | 307 | 4.0 | 11.0 | 0.00 | 0.00 | 0.68 | 40 | 1016.6 |
| 20260503003646 | 71 | 330 | 5.0 | 13.0 | 0.00 | 0.00 | 0.68 | 41 | 1016.3 |
| 20260503003146 | 71 | 356 | 2.0 | 7.0 | 0.00 | 0.00 | 0.68 | 41 | 1016.3 |
| 20260503002647 | 71 | 349 | 4.0 | 9.0 | 0.00 | 0.00 | 0.68 | 40 | 1015.9 |
| 20260503002147 | 71 | 25 | 4.0 | 7.0 | 0.00 | 0.00 | 0.68 | 40 | 1015.9 |
| 20260503001646 | 71 | 2 | 3.0 | 13.0 | 0.00 | 0.00 | 0.68 | 39 | 1015.9 |
| 20260503001147 | 71 | 29 | 7.0 | 10.0 | 0.00 | 0.00 | 0.68 | 39 | 1015.9 |
| 20260503000648 | 71 | 355 | 5.0 | 11.0 | 0.00 | 0.00 | 0.68 | 38 | 1015.9 |
| 20260503000146 | 72 | 336 | 5.0 | 15.0 | 0.00 | 0.00 | 0.68 | 38 | 1015.9 |
| 20260502235646 | 72 | 353 | 7.0 | 14.0 | 0.00 | 0.00 | 0.68 | 38 | 1015.9 |
| 20260502235146 | 72 | 301 | 5.0 | 11.0 | 0.00 | 0.00 | 0.68 | 38 | 1015.6 |
| 20260502234647 | 72 | 359 | 7.0 | 15.0 | 0.00 | 0.00 | 0.68 | 37 | 1015.6 |
| 20260502234146 | 72 | 8 | 4.0 | 12.0 | 0.00 | 0.00 | 0.68 | 37 | 1015.2 |
| 20260502233647 | 72 | 337 | 4.0 | 11.0 | 0.00 | 0.00 | 0.68 | 37 | 1015.2 |
| 20260502233146 | 72 | 349 | 8.0 | 11.0 | 0.00 | 0.00 | 0.68 | 38 | 1015.2 |
| 20260502232647 | 72 | 1 | 4.0 | 12.0 | 0.00 | 0.00 | 0.68 | 37 | 1015.2 |
| 20260502232146 | 73 | 6 | 4.0 | 12.0 | 0.00 | 0.00 | 0.68 | 37 | 1015.6 |
| 20260502231646 | 73 | 332 | 8.0 | 12.0 | 0.00 | 0.00 | 0.68 | 36 | 1015.2 |
| 20260502231147 | 73 | 337 | 6.0 | 10.0 | 0.00 | 0.00 | 0.68 | 36 | 1015.2 |
| 20260502230646 | 73 | 321 | 4.0 | 8.0 | 0.00 | 0.00 | 0.68 | 37 | 1015.2 |
| 20260502230146 | 73 | 8 | 11.0 | 13.0 | 0.00 | 0.00 | 0.68 | 37 | 1014.9 |
| 20260502225648 | 73 | 331 | 7.0 | 13.0 | 0.00 | 0.00 | 0.68 | 37 | 1015.2 |
| 20260502225146 | 73 | 22 | 11.0 | 15.0 | 0.00 | 0.00 | 0.68 | 37 | 1014.9 |
| 20260502224647 | 73 | 350 | 5.0 | 15.0 | 0.00 | 0.00 | 0.68 | 37 | 1015.2 |
| 20260502224146 | 73 | 19 | 6.0 | 11.0 | 0.00 | 0.00 | 0.68 | 38 | 1014.9 |
| 20260502223646 | 73 | 312 | 5.0 | 8.0 | 0.00 | 0.00 | 0.68 | 38 | 1014.9 |
| 20260502223146 | 73 | 345 | 4.0 | 11.0 | 0.00 | 0.00 | 0.68 | 37 | 1014.9 |
| 20260502222646 | 73 | 315 | 4.0 | 12.0 | 0.00 | 0.00 | 0.68 | 38 | 1014.9 |
| 20260502222146 | 73 | 338 | 5.0 | 9.0 | 0.00 | 0.00 | 0.68 | 38 | 1014.6 |
| 20260502221646 | 72 | 5 | 7.0 | 10.0 | 0.00 | 0.00 | 0.68 | 37 | 1014.9 |
| 20260502221146 | 72 | 5 | 7.0 | 10.0 | 0.00 | 0.00 | 0.68 | 37 | 1014.9 |
| 20260502220646 | 73 | 342 | 6.0 | 13.0 | 0.00 | 0.00 | 0.68 | 38 | 1014.9 |
| 20260502220146 | 73 | 22 | 7.0 | 15.0 | 0.00 | 0.00 | 0.68 | 37 | 1014.9 |
| 20260502215646 | 73 | 22 | 9.0 | 15.0 | 0.00 | 0.00 | 0.68 | 37 | 1014.9 |
| 20260502215146 | 73 | 13 | 7.0 | 14.0 | 0.00 | 0.00 | 0.68 | 38 | 1014.9 |
| 20260502214646 | 73 | 334 | 12.0 | 15.0 | 0.00 | 0.00 | 0.68 | 38 | 1014.9 |
| 20260502214146 | 73 | 305 | 6.0 | 16.0 | 0.00 | 0.00 | 0.68 | 38 | 1014.9 |
| 20260502213646 | 73 | 337 | 6.0 | 11.0 | 0.00 | 0.00 | 0.68 | 39 | 1014.9 |
| 20260502213146 | 72 | 341 | 6.0 | 15.0 | 0.00 | 0.00 | 0.68 | 37 | 1014.9 |
| 20260502212646 | 73 | 26 | 11.0 | 12.0 | 0.00 | 0.00 | 0.68 | 38 | 1014.9 |
| 20260502212146 | 73 | 334 | 8.0 | 16.0 | 0.00 | 0.00 | 0.68 | 40 | 1014.9 |
| 20260502211647 | 73 | 8 | 8.0 | 14.0 | 0.00 | 0.00 | 0.68 | 41 | 1014.6 |
| 20260502211146 | 73 | 354 | 4.0 | 16.0 | 0.00 | 0.00 | 0.68 | 39 | 1014.6 |
| 20260502210646 | 73 | 2 | 9.0 | 14.0 | 0.00 | 0.00 | 0.68 | 40 | 1014.9 |
| 20260502210147 | 72 | 330 | 7.0 | 15.0 | 0.00 | 0.00 | 0.68 | 40 | 1014.9 |
| 20260502205647 | 73 | 339 | 8.0 | 18.0 | 0.00 | 0.00 | 0.68 | 40 | 1014.9 |
| 20260502205147 | 72 | 320 | 13.0 | 17.0 | 0.00 | 0.00 | 0.68 | 42 | 1014.9 |
| 20260502204646 | 73 | 46 | 12.0 | 14.0 | 0.00 | 0.00 | 0.68 | 42 | 1014.9 |
| 20260502204147 | 72 | 353 | 12.0 | 20.0 | 0.00 | 0.00 | 0.68 | 42 | 1014.9 |
| 20260502203647 | 72 | 15 | 13.0 | 16.0 | 0.00 | 0.00 | 0.68 | 44 | 1014.9 |
| 20260502203146 | 73 | 35 | 8.0 | 14.0 | 0.00 | 0.00 | 0.68 | 43 | 1014.9 |
| 20260502202646 | 73 | 340 | 7.0 | 16.0 | 0.00 | 0.00 | 0.68 | 45 | 1014.6 |